Home > Weather > Beja > Past weeks

Flag for Portugal Past Weather in Beja, Portugal — Yesterday and Last 2 Weeks

Now
70 °F

Sunny.


Feels Like: 70 °F
Forecast: 59 / 86 °F
Wind: 12 mph from Northwest

Location: Beja Airport

Current Time: Jul 30, 2016 at 9:55:05 PM

Latest Report: Jul 30, 2016 at 9:00 PM


Visibility: 10 mi

Pressure: 30.07 "Hg

Humidity: 69%

Dew Point: 59 °F

Location of BejaLocation

Past Weather in Beja — Graph

°F

Beja Temperature Yesterday

Maximum temperature yesterday: 95 °F (at 2:00 PM)
Minimum temperature yesterday: 68 °F (at 5:00 AM)
Average temperature yesterday: 81 °F

High & Low Weather Summary for the Past Weeks

 TemperatureHumidityPressure
High102 °F (Jul 17, 5:00 PM)100% (Jul 27, 6:00 AM)30.07 "Hg (Jul 27, 6:00 AM)
Low59 °F (Jul 21, 5:00 AM)13% (Jul 16, 5:00 PM)29.92 "Hg (Jul 17, 5:00 PM)
Average80 °F46%30.00 "Hg
* Reported Jul 15 8:00 PM — Jul 30 8:00 PM, Beja, Weather by CustomWeather, © 2016

Note: Actual official high and low records may vary slightly from our data, if they occured in-between our weather recording intervals... More about our weather records

Advertising

Beja Weather History for the Previous 24 Hours

Scroll right to see more
 ConditionsComfort  
Time TempWeatherWind HumidityBarometerVisibility
8:00 PM
Sat, Jul 30
73 °FSunny.13 mph61%30.04 "Hg10 mi
7:00 PM77 °FSunny.16 mph54%30.04 "Hg10 mi
6:00 PM81 °FSunny.15 mph48%30.04 "Hg10 mi
5:00 PM81 °FPassing clouds.15 mph48%30.04 "HgN/A
4:00 PM82 °FPassing clouds.16 mph42%30.04 "HgN/A
3:00 PM84 °FPassing clouds.9 mph33%30.04 "HgN/A
2:00 PM82 °FPassing clouds.10 mph35%30.04 "HgN/A
1:00 PM79 °FPassing clouds.10 mph42%30.04 "HgN/A
12:00 PM75 °FPassing clouds.8 mph50%30.04 "HgN/A
11:00 AM73 °FPassing clouds.8 mph57%30.04 "HgN/A
10:00 AM70 °FScattered clouds.7 mph64%30.04 "HgN/A
9:00 AM68 °FPartly sunny.10 mph69%30.04 "HgN/A
8:00 AM66 °FPartly sunny.10 mph73%30.04 "HgN/A
7:00 AM66 °FPassing clouds.10 mph73%30.04 "HgN/A
6:00 AM66 °FPassing clouds.10 mph78%30.01 "HgN/A
5:00 AM66 °FPassing clouds.10 mph78%30.01 "HgN/A
4:00 AM66 °FPassing clouds.9 mph88%30.01 "HgN/A
3:00 AM66 °FPassing clouds.8 mph94%30.01 "HgN/A
2:00 AM64 °FClear.5 mph94%30.01 "Hg10 mi
1:00 AM66 °FClear.5 mph88%30.01 "Hg10 mi
12:00 AM68 °FClear.6 mph83%29.98 "Hg10 mi
11:00 PM
Fri, Jul 29
70 °FClear.7 mph83%29.98 "Hg10 mi
10:00 PM73 °FClear.10 mph74%29.98 "Hg10 mi
9:00 PM81 °FSunny.10 mph58%29.95 "Hg10 mi
Weather by CustomWeather, © 2016

See weather overviewHow to use our weather pages